• In Hungary
  • List of Countries
  • For 7 days
  • Water Temperature
  • Satellite Maps
  • Weather Map
  • News
  • Weather Widgets
  • user-avatar
    Login

    Hourly Weather San Marcos La Laguna

    Today, 22 October, Sunday

    Time Temperature Precipitation Wind Pressure Humidity
    00:00 +12°C° 0 mm 1 mps 583 mmHg 91%
    01:00 +12°C° 0 mm 1 mps 583 mmHg 90%
    02:00 +12°C° 0 mm 1 mps 583 mmHg 89%
    03:00 +12°C° 0 mm 1 mps 583 mmHg 88%
    04:00 +12°C° 0 mm 1 mps 583 mmHg 87%
    05:00 +12°C° 0 mm 1 mps 583 mmHg 86%
    06:00 +12°C° 0 mm 1 mps 583 mmHg 87%
    07:00 +14°C° 0 mm 1 mps 584 mmHg 80%
    08:00 +16°C° 0 mm 1 mps 585 mmHg 73%
    09:00 +20°C° 0 mm 1 mps 586 mmHg 66%
    10:00 +20°C° 0.5 mm 1 mps 586 mmHg 68%
    11:00 +20°C° 0.5 mm 1 mps 586 mmHg 70%
    12:00 +19°C° 0.5 mm 2 mps 586 mmHg 72%
    13:00 +19°C° 1.6 mm 2 mps 585 mmHg 76%
    14:00 +18°C° 1.6 mm 2 mps 584 mmHg 81%
    15:00 +18°C° 1.6 mm 1 mps 584 mmHg 85%
    16:00 +16°C° 2.1 mm 1 mps 584 mmHg 88%
    17:00 +15°C° 2.1 mm 1 mps 583 mmHg 91%
    18:00 +14°C° 2.1 mm 1 mps 583 mmHg 94%
    19:00 +14°C° 0.9 mm 1 mps 583 mmHg 94%
    20:00 +14°C° 0.9 mm 1 mps 584 mmHg 94%
    21:00 +13°C° 0.9 mm 1 mps 584 mmHg 94%
    22:00 +13°C° 0.4 mm 1 mps 584 mmHg 93%
    23:00 +13°C° 0.4 mm 1 mps 584 mmHg 93%

    Tomorrow, 23 October, Monday

    Time Temperature Precipitation Wind Pressure Humidity
    00:00 +13°C° 0.4 mm 1 mps 584 mmHg 92%
    01:00 +13°C° 0.3 mm 1 mps 583 mmHg 91%
    02:00 +12°C° 0.3 mm 1 mps 583 mmHg 90%
    03:00 +12°C° 0.3 mm 1 mps 582 mmHg 89%
    04:00 +12°C° 0.2 mm 1 mps 582 mmHg 88%
    05:00 +12°C° 0.2 mm 1 mps 582 mmHg 87%
    06:00 +12°C° 0.2 mm 1 mps 583 mmHg 86%
    07:00 +14°C° 0.2 mm 1 mps 584 mmHg 82%
    08:00 +15°C° 0.2 mm 1 mps 585 mmHg 78%
    09:00 +16°C° 0.2 mm 0 mps 586 mmHg 74%
    10:00 +19°C° 0.3 mm 1 mps 586 mmHg 73%
    11:00 +19°C° 0.3 mm 1 mps 586 mmHg 71%
    12:00 +20°C° 0.3 mm 1 mps 586 mmHg 70%
    13:00 +19°C° 0.6 mm 1 mps 585 mmHg 74%
    14:00 +19°C° 0.6 mm 1 mps 584 mmHg 78%
    15:00 +18°C° 0.6 mm 1 mps 583 mmHg 82%
    16:00 +16°C° 1.2 mm 1 mps 583 mmHg 86%
    17:00 +15°C° 1.2 mm 1 mps 583 mmHg 89%
    18:00 +13°C° 1.2 mm 0 mps 582 mmHg 93%
    19:00 +12°C° 0.8 mm 0 mps 583 mmHg 93%
    20:00 +13°C° 0.8 mm 1 mps 583 mmHg 92%
    21:00 +13°C° 0.8 mm 1 mps 583 mmHg 92%
    22:00 +13°C° 0.2 mm 1 mps 583 mmHg 91%
    23:00 +13°C° 0.2 mm 1 mps 583 mmHg 90%

    Day after tomorrow, 24 October, Tuesday

    Time Temperature Precipitation Wind Pressure Humidity
    00:00 +13°C° 0.2 mm 1 mps 583 mmHg 89%
    01:00 +13°C° 0.1 mm 1 mps 583 mmHg 88%
    02:00 +12°C° 0.1 mm 1 mps 582 mmHg 88%
    03:00 +12°C° 0.1 mm 1 mps 582 mmHg 87%
    04:00 +12°C° 0.2 mm 1 mps 582 mmHg 86%
    05:00 +12°C° 0.2 mm 1 mps 582 mmHg 86%
    06:00 +13°C° 0.2 mm 1 mps 582 mmHg 85%
    07:00 +13°C° 0.2 mm 1 mps 583 mmHg 84%
    08:00 +14°C° 0.2 mm 1 mps 584 mmHg 83%
    09:00 +15°C° 0.2 mm 1 mps 585 mmHg 82%
    10:00 +15°C° 0.5 mm 1 mps 585 mmHg 81%
    11:00 +16°C° 0.5 mm 1 mps 585 mmHg 81%
    12:00 +16°C° 0.5 mm 1 mps 585 mmHg 81%
    13:00 +16°C° 1.3 mm 1 mps 584 mmHg 84%
    14:00 +15°C° 1.3 mm 1 mps 584 mmHg 87%
    15:00 +15°C° 1.3 mm 1 mps 583 mmHg 89%
    16:00 +14°C° 0.8 mm 1 mps 583 mmHg 91%
    17:00 +13°C° 0.8 mm 1 mps 583 mmHg 92%
    18:00 +12°C° 0.8 mm 1 mps 583 mmHg 93%
    19:00 +12°C° 1 mm 1 mps 583 mmHg 93%
    20:00 +12°C° 1 mm 2 mps 583 mmHg 92%
    21:00 +10°C° 1 mm 2 mps 584 mmHg 91%
    22:00 +10°C° 1.3 mm 2 mps 583 mmHg 92%
    23:00 +10°C° 1.3 mm 2 mps 583 mmHg 92%

    25 October, Wednesday

    Time Temperature Precipitation Wind Pressure Humidity
    00:00 +10°C° 1.3 mm 2 mps 583 mmHg 92%
    01:00 +10°C° 1 mm 2 mps 583 mmHg 91%
    02:00 +10°C° 1 mm 2 mps 582 mmHg 90%
    03:00 +10°C° 1 mm 2 mps 582 mmHg 90%
    04:00 +10°C° 0.5 mm 2 mps 582 mmHg 88%
    05:00 +10°C° 0.5 mm 2 mps 582 mmHg 86%
    06:00 +10°C° 0.5 mm 2 mps 583 mmHg 85%
    07:00 +12°C° 0.3 mm 2 mps 583 mmHg 84%
    08:00 +13°C° 0.3 mm 2 mps 584 mmHg 83%
    09:00 +13°C° 0.3 mm 2 mps 585 mmHg 81%
    10:00 +14°C° 0.1 mm 2 mps 585 mmHg 79%
    11:00 +15°C° 0.1 mm 2 mps 585 mmHg 76%
    12:00 +15°C° 0.1 mm 2 mps 585 mmHg 74%
    13:00 +15°C° 0.1 mm 2 mps 585 mmHg 74%
    14:00 +15°C° 0.1 mm 2 mps 584 mmHg 74%
    15:00 +14°C° 0.1 mm 2 mps 584 mmHg 74%
    16:00 +13°C° 0 mm 2 mps 583 mmHg 76%
    17:00 +12°C° 0 mm 2 mps 583 mmHg 77%
    18:00 +10°C° 0 mm 2 mps 583 mmHg 79%
    19:00 +10°C° 0 mm 2 mps 583 mmHg 76%
    20:00 +10°C° 0 mm 2 mps 584 mmHg 73%
    21:00 +10°C° 0 mm 2 mps 584 mmHg 70%
    22:00 +9°C° 0 mm 2 mps 584 mmHg 69%
    23:00 +9°C° 0 mm 2 mps 583 mmHg 68%

    26 October, Thursday

    Time Temperature Precipitation Wind Pressure Humidity
    00:00 +9°C° 0 mm 2 mps 583 mmHg 67%
    01:00 +9°C° 0 mm 2 mps 583 mmHg 68%
    02:00 +9°C° 0 mm 2 mps 582 mmHg 69%
    03:00 +9°C° 0 mm 2 mps 582 mmHg 70%
    04:00 +8°C° 0 mm 2 mps 582 mmHg 70%
    05:00 +8°C° 0 mm 2 mps 582 mmHg 71%
    06:00 +8°C° 0 mm 2 mps 582 mmHg 71%
    07:00 +10°C° 0 mm 2 mps 584 mmHg 66%
    08:00 +13°C° 0 mm 1 mps 585 mmHg 61%
    09:00 +16°C° 0 mm 1 mps 586 mmHg 57%
    10:00 +17°C° 0 mm 2 mps 587 mmHg 56%
    11:00 +18°C° 0 mm 2 mps 587 mmHg 55%
    12:00 +20°C° 0 mm 2 mps 587 mmHg 54%
    13:00 +19°C° 0.1 mm 2 mps 586 mmHg 60%
    14:00 +18°C° 0.1 mm 2 mps 585 mmHg 66%
    15:00 +17°C° 0.1 mm 2 mps 584 mmHg 72%
    16:00 +15°C° 0.4 mm 1 mps 584 mmHg 79%
    17:00 +14°C° 0.4 mm 1 mps 583 mmHg 85%
    18:00 +12°C° 0.4 mm 1 mps 583 mmHg 92%
    19:00 +12°C° 0.5 mm 1 mps 583 mmHg 92%
    20:00 +11°C° 0.5 mm 1 mps 583 mmHg 92%
    21:00 +11°C° 0.5 mm 1 mps 584 mmHg 92%
    22:00 +11°C° 1 mm 1 mps 583 mmHg 91%
    23:00 +11°C° 1 mm 1 mps 583 mmHg 91%

    27 October, Friday

    Time Temperature Precipitation Wind Pressure Humidity
    00:00 +11°C° 1 mm 1 mps 582 mmHg 91%
    01:00 +11°C° 1.7 mm 1 mps 582 mmHg 91%
    02:00 +11°C° 1.7 mm 1 mps 582 mmHg 91%
    03:00 +11°C° 1.7 mm 1 mps 581 mmHg 91%
    04:00 +11°C° 1.2 mm 1 mps 581 mmHg 91%
    05:00 +11°C° 1.2 mm 1 mps 582 mmHg 91%
    06:00 +11°C° 1.2 mm 1 mps 582 mmHg 90%
    07:00 +13°C° 0.3 mm 1 mps 583 mmHg 86%
    08:00 +14°C° 0.3 mm 1 mps 584 mmHg 81%
    09:00 +15°C° 0.3 mm 0 mps 585 mmHg 76%
    10:00 +18°C° 0 mm 1 mps 585 mmHg 72%
    11:00 +19°C° 0 mm 1 mps 585 mmHg 67%
    12:00 +19°C° 0 mm 2 mps 585 mmHg 62%
    13:00 +18°C° 0.3 mm 2 mps 584 mmHg 68%
    14:00 +18°C° 0.3 mm 1 mps 583 mmHg 75%
    15:00 +16°C° 0.3 mm 1 mps 583 mmHg 81%
    16:00 +15°C° 0.9 mm 1 mps 582 mmHg 85%
    17:00 +14°C° 0.9 mm 1 mps 582 mmHg 89%
    18:00 +12°C° 0.9 mm 0 mps 582 mmHg 93%
    19:00 +12°C° 1.2 mm 0 mps 583 mmHg 93%
    20:00 +13°C° 1.2 mm 1 mps 583 mmHg 94%
    21:00 +13°C° 1.2 mm 1 mps 583 mmHg 94%
    22:00 +12°C° 0.3 mm 1 mps 583 mmHg 94%
    23:00 +12°C° 0.3 mm 1 mps 583 mmHg 93%
    Show more